EW2748 Weather Reports


Display with metric or nautical units.
time (UTC)temp
F
wind
direction
speed
MPH
gust
MPH
rain 1hr
in
rain 24hr
in
rain mn
in
humidity
%
barometer
mb
20260507164014 63 292 3.0 10.0 0.00 1.63 0.31 63 1016.1
20260507163504 62 281 0.0 10.0 0.00 1.63 0.31 67 1016.1
20260507163020 62 294 2.0 10.0 0.00 1.63 0.31 66 1016.3
20260507162004 62 11 1.0 3.0 0.00 1.63 0.31 68 1016.1
20260507161518 61 11 1.0 7.0 0.00 1.63 0.31 70 1016.0
20260507161007 61 274 2.0 7.0 0.00 1.63 0.31 69 1016.0
20260507160510 61 335 1.0 7.0 0.00 1.63 0.31 69 1016.0
20260507160013 61 262 1.0 7.0 0.00 1.63 0.31 73 1016.0
20260507155508 60 67 1.0 9.0 0.00 1.63 0.31 74 1016.1
20260507155011 60 305 1.0 9.0 0.00 1.63 0.31 72 1016.1
20260507154528 60 290 1.0 7.0 0.00 1.63 0.31 72 1016.0
20260507153508 59 296 0.0 5.0 0.00 1.63 0.31 74 1015.9
20260507153024 59 1 1.0 5.0 0.00 1.63 0.31 75 1016.0
20260507152504 59 289 0.0 5.0 0.00 1.63 0.31 76 1015.8
20260507152007 58 356 1.0 5.0 0.00 1.63 0.31 78 1016.0
20260507151527 58 268 1.0 5.0 0.00 1.63 0.31 77 1016.1
20260507151011 58 297 1.0 5.0 0.00 1.63 0.31 78 1016.0
20260507150504 58 319 1.0 5.0 0.00 1.63 0.31 80 1016.0
20260507150023 57 25 2.0 6.0 0.00 1.63 0.31 80 1015.9
20260507145509 57 21 0.0 6.0 0.00 1.64 0.31 84 1016.0
20260507144525 56 81 1.0 7.0 0.00 1.64 0.31 85 1016.0
20260507144008 56 30 0.0 7.0 0.00 1.64 0.31 86 1016.0
20260507143507 55 297 1.0 5.0 0.00 1.64 0.31 89 1015.9
20260507143013 55 33 1.0 7.0 0.00 1.64 0.31 90 1015.9
20260507142508 55 332 2.0 7.0 0.00 1.64 0.31 89 1015.9
20260507142013 54 295 1.0 5.0 0.00 1.64 0.31 91 1015.8
20260507141508 54 316 1.0 5.0 0.00 1.64 0.31 91 1015.8
20260507141010 54 13 1.0 6.0 0.00 1.64 0.31 92 1015.7
20260507140507 54 70 0.0 6.0 0.00 1.64 0.31 93 1015.7
20260507140023 54 331 1.0 6.0 0.00 1.64 0.31 93 1015.6
20260507135508 54 285 0.0 4.0 0.00 1.64 0.31 94 1015.6
20260507135005 54 309 1.0 4.0 0.00 1.64 0.31 93 1015.6
20260507134524 54 38 0.0 3.0 0.00 1.64 0.31 94 1015.5
20260507134008 54 15 0.0 3.0 0.00 1.64 0.31 94 1015.5
20260507133022 54 332 1.0 8.0 0.00 1.66 0.31 95 1015.1
20260507132508 54 281 1.0 8.0 0.00 1.73 0.31 95 1015.0
20260507132005 53 315 2.0 5.0 0.00 2.03 0.31 95 1014.9
20260507131525 53 309 1.0 7.0 0.00 2.08 0.31 95 1014.8
20260507131009 54 25 1.0 7.0 0.00 2.17 0.31 96 1014.7
20260507130510 53 306 0.0 5.0 0.00 2.19 0.31 97 1014.7
20260507130016 53 312 0.0 5.0 0.00 2.21 0.31 96 1014.7
20260507125508 53 29 1.0 5.0 0.00 2.23 0.31 96 1014.7
20260507125011 53 281 0.0 4.0 0.00 2.24 0.31 96 1014.7
20260507124514 53 281 0.0 3.0 0.00 2.25 0.31 97 1014.7
20260507124005 53 285 0.0 3.0 0.00 2.25 0.31 96 1014.9
20260507123509 53 289 0.0 4.0 0.00 2.25 0.31 97 1014.8
20260507123027 53 271 0.0 4.0 0.00 2.25 0.31 97 1014.7
20260507122009 53 280 0.0 4.0 0.00 2.25 0.31 97 1014.5
20260507121526 53 319 0.0 4.0 0.00 2.25 0.31 97 1014.5
20260507121008 53 354 0.0 2.0 0.00 2.25 0.31 97 1014.6
20260507120507 53 307 0.0 2.0 0.00 2.25 0.31 97 1014.5
20260507120032 53 279 0.0 4.0 0.00 2.25 0.31 97 1014.4
20260507115509 53 26 0.0 4.0 0.00 2.25 0.31 97 1014.2
20260507115007 53 277 1.0 3.0 0.00 2.25 0.31 97 1014.1
20260507114520 53 301 0.0 2.0 0.00 2.25 0.31 97 1014.1
20260507114008 53 293 0.0 2.0 0.00 2.25 0.31 97 1014.0
20260507113509 53 19 0.0 6.0 0.00 2.25 0.31 97 1013.9
20260507113018 53 304 0.0 6.0 0.00 2.25 0.31 97 1013.9
20260507112509 53 351 0.0 4.0 0.00 2.25 0.31 97 1013.8
20260507112011 53 286 1.0 4.0 0.00 2.25 0.31 97 1014.2
20260507111008 53 338 0.0 3.0 0.00 2.25 0.31 97 1013.5
20260507110509 53 273 0.0 3.0 0.00 2.25 0.31 97 1013.5
20260507110028 53 326 0.0 1.0 0.00 2.25 0.31 97 1013.5
20260507105505 53 320 0.0 1.0 0.00 2.25 0.31 97 1013.8
20260507105009 53 347 0.0 3.0 0.00 2.25 0.31 97 1013.8
20260507104527 53 282 0.0 3.0 0.00 2.25 0.31 97 1013.5
20260507104011 53 328 0.0 2.0 0.01 2.25 0.31 97 1013.4
20260507103507 53 326 0.0 2.0 0.02 2.25 0.31 97 1013.5
20260507103028 53 282 0.0 2.0 0.03 2.25 0.31 97 1013.8
20260507102508 53 351 0.0 2.0 0.03 2.25 0.31 97 1013.7
20260507102008 53 307 0.0 1.0 0.03 2.25 0.31 97 1013.7
20260507101012 53 8 1.0 4.0 0.03 2.25 0.31 97 1013.5
20260507100508 53 289 0.0 4.0 0.03 2.25 0.31 97 1013.3
20260507100030 54 266 0.0 3.0 0.03 2.25 0.31 97 1013.1
20260507095509 54 327 0.0 3.0 0.03 2.25 0.31 97 1013.0
20260507095009 54 310 1.0 4.0 0.03 2.25 0.31 97 1013.0
20260507094518 54 22 1.0 5.0 0.03 2.25 0.31 97 1013.6
20260507094010 54 334 0.0 7.0 0.02 2.24 0.30 97 1013.4
20260507093509 54 273 0.0 7.0 0.02 2.23 0.29 98 1013.7
20260507093018 54 281 0.0 3.0 0.03 2.22 0.28 98 1013.5
20260507092512 54 262 0.0 2.0 0.06 2.22 0.28 98 1013.1
20260507092007 54 288 0.0 2.0 0.08 2.22 0.28 98 1013.0
20260507091508 54 283 0.0 4.0 0.10 2.22 0.28 98 1013.1
20260507091006 54 278 0.0 4.0 0.16 2.22 0.28 98 1013.3
20260507090505 54 252 0.0 0.0 0.22 2.22 0.28 98 1013.4
20260507090006 54 308 0.0 0.0 0.25 2.22 0.28 98 1013.6
20260507085505 54 276 0.0 2.0 0.25 2.22 0.28 98 1013.7
20260507085009 54 326 0.0 2.0 0.25 2.22 0.28 98 1013.6
20260507084507 54 277 0.0 3.0 0.25 2.22 0.28 97 1013.5
20260507084002 54 23 0.0 3.0 0.25 2.22 0.28 97 1013.0
20260507083510 54 310 0.0 3.0 0.24 2.21 0.27 97 1013.1
20260507083024 54 313 0.0 4.0 0.22 2.19 0.25 97 1012.9
20260507082503 54 79 1.0 4.0 0.19 2.16 0.22 97 1013.1
20260507082005 54 288 0.0 5.0 0.20 2.14 0.20 97 1014.3
20260507081519 54 304 1.0 6.0 0.18 2.11 0.18 97 1014.2
20260507081003 54 285 0.0 6.0 0.12 2.06 0.12 97 1013.5
20260507080504 54 39 0.0 6.0 0.06 2.00 0.06 97 1013.9
20260507080016 54 303 2.0 6.0 0.03 1.97 0.03 97 1013.9
20260507075508 54 305 0.0 2.0 0.03 1.97 0.03 97 1012.5
20260507075006 54 300 0.0 2.0 0.03 1.97 0.03 97 1012.4
20260507073503 54 333 0.0 3.0 0.03 1.97 0.03 97 1012.9
20260507073010 54 272 1.0 6.0 0.03 1.97 0.03 97 1013.0
20260507072508 54 331 1.0 6.0 0.03 1.97 0.03 97 1013.8
20260507072006 54 299 2.0 6.0 0.00 1.94 0.00 97 1014.7
20260507071505 54 276 1.0 5.0 0.00 1.94 0.00 97 1013.6
20260507070507 54 13 1.0 4.0 0.00 1.94 0.00 97 1012.8
20260507070008 54 280 1.0 4.0 0.00 1.94 0.00 97 1012.9
20260507065503 55 257 0.0 4.0 0.00 1.94 0.00 97 1013.5
20260507065007 55 259 0.0 7.0 0.00 1.94 0.00 97 1013.6
20260507064533 55 266 1.0 7.0 0.00 1.94 0.00 97 1013.6
20260507064004 55 20 0.0 4.0 0.00 1.94 0.00 97 1013.7
20260507063507 55 357 1.0 4.0 0.00 1.94 0.00 97 1013.7
20260507063027 55 32 0.0 5.0 0.00 1.94 0.00 97 1013.7
20260507062510 55 304 0.0 5.0 0.00 1.94 0.00 97 1013.1
20260507062004 55 352 0.0 5.0 0.00 1.94 0.00 97 1013.1
20260507061515 55 25 1.0 5.0 0.00 1.94 0.00 97 1013.8
20260507061009 55 262 0.0 4.0 0.00 1.94 0.00 97 1013.8
20260507060018 55 264 0.0 1.0 0.00 1.94 0.00 97 1014.0
20260507055507 55 293 0.0 5.0 0.00 1.94 0.00 97 1014.1
20260507055011 55 65 0.0 5.0 0.00 1.94 0.00 97 1014.1
20260507054003 55 16 0.0 9.0 0.00 1.94 0.00 97 1014.3
20260507053507 55 90 0.0 4.0 0.00 1.94 0.00 97 1014.4
20260507053008 55 28 0.0 3.0 0.00 1.94 0.00 97 1013.7
20260507052503 55 352 0.0 2.0 0.00 1.94 0.00 97 1013.9
20260507052007 55 266 0.0 1.0 0.00 1.94 0.00 97 1013.7
20260507051004 55 271 0.0 1.0 0.00 1.94 0.00 97 1013.9
20260507050504 55 285 0.0 3.0 0.00 1.94 0.00 97 1013.9
20260507050031 55 287 0.0 3.0 0.00 1.94 0.00 97 1014.1
20260507045509 56 354 0.0 3.0 0.00 1.94 1.94 97 1013.9
20260507044516 56 39 0.0 2.0 0.00 1.94 1.94 97 1014.3
20260507044007 56 304 0.0 3.0 0.00 1.94 1.94 97 1014.1
20260507043503 56 290 0.0 3.0 0.00 1.94 1.94 97 1014.1
20260507043013 56 4 0.0 2.0 0.00 1.94 1.94 97 1014.0
20260507042508 56 261 0.0 2.0 0.00 1.94 1.94 97 1014.2
20260507042011 56 274 0.0 1.0 0.00 1.94 1.94 97 1014.0
20260507041527 56 295 0.0 3.0 0.00 1.94 1.94 97 1013.5
20260507041004 56 1 0.0 3.0 0.00 1.94 1.94 97 1013.5
20260507040008 56 283 1.0 3.0 0.01 1.94 1.94 97 1014.2
20260507035505 56 25 0.0 2.0 0.01 1.94 1.94 97 1013.8
20260507035007 56 40 0.0 1.0 0.01 1.94 1.94 97 1013.7
20260507034523 56 333 0.0 2.0 0.01 1.94 1.94 97 1013.6
20260507033506 56 3 1.0 4.0 0.05 1.94 1.94 97 1013.9
20260507033027 56 281 0.0 4.0 0.05 1.94 1.94 97 1014.0
20260507032511 56 296 0.0 3.0 0.07 1.94 1.94 97 1014.6
20260507032008 56 303 0.0 3.0 0.08 1.94 1.94 97 1014.2
20260507031524 56 272 1.0 4.0 0.09 1.94 1.94 97 1013.7
20260507031014 57 329 1.0 4.0 0.09 1.94 1.94 97 1013.3
20260507030506 57 332 0.0 4.0 0.08 1.93 1.93 97 1013.5
20260507030021 57 278 1.0 4.0 0.08 1.93 1.93 97 1013.8
20260507024515 57 290 1.0 3.0 0.08 1.93 1.93 97 1013.7
20260507024005 57 26 0.0 3.0 0.08 1.93 1.93 97 1013.5
20260507023511 57 347 1.0 3.0 0.04 1.89 1.89 97 1013.7
20260507022511 58 274 0.0 2.0 0.02 1.87 1.87 97 1013.5
20260507022012 58 265 0.0 2.0 0.01 1.86 1.86 97 1013.7
20260507021524 58 264 0.0 1.0 0.00 1.85 1.85 97 1013.2
20260507021004 58 103 0.0 0.0 0.00 1.85 1.85 97 1013.4
20260507020024 58 293 0.0 1.0 0.00 1.85 1.85 97 1013.7
20260507015504 58 287 0.0 2.0 0.00 1.85 1.85 97 1013.5
20260507015009 58 82 0.0 2.0 0.00 1.85 1.85 97 1013.4
20260507013505 58 23 0.0 2.0 0.00 1.85 1.85 97 1013.1
20260507013023 58 280 0.0 0.0 0.00 1.85 1.85 97 1013.1
20260507012530 58 278 0.0 1.0 0.00 1.85 1.85 97 1013.1
20260507012011 58 11 0.0 2.0 0.00 1.85 1.85 97 1013.1
20260507011008 58 293 0.0 2.0 0.00 1.85 1.85 97 1013.2
20260507010507 58 85 0.0 2.0 0.00 1.85 1.85 97 1013.2
20260507010014 58 84 0.0 0.0 0.00 1.85 1.85 97 1013.2
20260507005505 59 23 0.0 0.0 0.00 1.85 1.85 97 1013.3
20260507004533 59 94 0.0 0.0 0.00 1.85 1.85 97 1013.8
20260507003510 59 122 0.0 0.0 0.01 1.85 1.85 97 1013.8
20260507002502 59 68 0.0 1.0 0.01 1.85 1.85 97 1013.6
20260507002007 59 276 0.0 1.0 0.02 1.85 1.85 97 1013.4
20260507001527 59 277 0.0 1.0 0.02 1.85 1.85 97 1013.5
20260507001011 60 13 0.0 4.0 0.02 1.85 1.85 97 1013.4
20260507000503 60 319 0.0 4.0 0.02 1.85 1.85 97 1013.4
20260507000026 60 281 0.0 6.0 0.02 1.85 1.85 97 1013.4
20260506235507 61 27 1.0 6.0 0.02 1.85 1.85 96 1013.4
20260506235009 61 323 1.0 3.0 0.02 1.85 1.85 97 1013.4
20260506233017 62 273 0.0 5.0 0.02 1.84 1.84 97 1013.7
20260506232507 62 286 0.0 5.0 0.04 1.84 1.84 97 1013.5
20260506232009 62 4 0.0 4.0 0.04 1.83 1.83 97 1013.1
20260506231007 63 300 0.0 6.0 0.05 1.83 1.83 97 1013.2
20260506230509 63 303 0.0 6.0 0.05 1.83 1.83 96 1013.4
20260506230007 63 291 2.0 6.0 0.05 1.83 1.83 96 1013.5
20260506225503 64 284 0.0 5.0 0.05 1.83 1.83 97 1013.3
20260506225007 64 273 0.0 5.0 0.05 1.83 1.83 96 1013.3
20260506224527 65 259 1.0 5.0 0.04 1.82 1.82 97 1013.0
20260506224003 65 290 1.0 5.0 0.04 1.82 1.82 97 1012.9
20260506223504 65 275 0.0 3.0 0.04 1.82 1.82 97 1012.8
20260506223034 65 297 0.0 2.0 0.07 1.82 1.82 97 1012.8
20260506222004 65 296 0.0 5.0 0.04 1.79 1.79 97 1012.8
20260506221519 65 297 0.0 5.0 0.03 1.78 1.78 97 1012.8
20260506221014 65 292 0.0 3.0 0.03 1.78 1.78 97 1012.8
20260506220504 65 307 0.0 2.0 0.03 1.78 1.78 97 1012.7
20260506220016 65 297 0.0 0.0 0.03 1.78 1.78 97 1012.7
20260506215514 65 302 0.0 0.0 0.04 1.78 1.78 97 1012.5
20260506215006 65 302 0.0 0.0 0.10 1.78 1.78 97 1012.4
20260506214515 65 302 0.0 0.0 0.14 1.78 1.78 97 1012.4
20260506213511 65 340 0.0 0.0 0.20 1.78 1.78 97 1012.1
20260506213011 65 342 0.0 0.0 0.18 1.75 1.75 97 1012.3
20260506212504 65 342 0.0 0.0 0.23 1.75 1.75 97 1012.3
20260506211532 65 343 0.0 0.0 0.32 1.75 1.75 97 1012.0
20260506211003 65 343 0.0 0.0 0.48 1.75 1.75 97 1012.0
20260506210507 65 294 0.0 0.0 0.56 1.75 1.75 97 1012.0
20260506210030 65 294 0.0 0.0 0.58 1.75 1.75 97 1012.2
20260506205504 65 308 0.0 0.0 0.58 1.74 1.74 97 1012.3
20260506204523 64 308 0.0 0.0 0.51 1.64 1.64 97 1012.0
20260506204009 64 349 0.0 0.0 0.50 1.62 1.62 97 1011.9
20260506203503 64 326 0.0 0.0 0.46 1.58 1.58 97 1011.9
20260506203025 64 326 0.0 0.0 0.45 1.57 1.57 96 1012.2
20260506202509 65 323 0.0 0.0 0.40 1.52 1.52 96 1012.3
20260506202004 65 323 0.0 0.0 0.36 1.48 1.48 96 1012.4
20260506201529 64 323 0.0 0.0 0.31 1.43 1.43 96 1012.5
20260506201010 65 285 0.0 0.0 0.18 1.27 1.27 96 1012.8
20260506200507 64 37 0.0 0.0 0.11 1.19 1.19 96 1012.2
20260506200013 64 37 0.0 0.0 0.09 1.16 1.16 96 1012.4
20260506195507 64 347 0.0 0.0 0.09 1.16 1.16 96 1012.6
20260506195008 64 304 0.0 0.0 0.07 1.13 1.13 96 1012.6
20260506193508 64 304 0.0 0.0 0.06 1.12 1.12 96 1012.8
20260506193024 64 319 0.0 0.0 0.07 1.12 1.12 96 1012.9
20260506192504 64 328 0.0 0.0 0.07 1.12 1.12 96 1012.9
20260506192007 64 328 0.0 0.0 0.07 1.12 1.12 95 1013.0
20260506191524 64 288 0.0 0.0 0.08 1.12 1.12 95 1013.4
20260506191011 64 288 0.0 0.0 0.07 1.09 1.09 96 1013.4
20260506190507 64 345 0.0 0.0 0.10 1.08 1.08 95 1013.5
20260506190022 64 299 0.0 0.0 0.17 1.08 1.08 95 1013.6
20260506185511 64 299 0.0 0.0 0.19 1.07 1.07 95 1013.7
20260506184517 64 299 0.0 0.0 0.21 1.05 1.05 95 1013.7
20260506184011 64 299 0.0 2.0 0.22 1.05 1.05 95 1013.6
20260506183511 64 299 0.0 2.0 0.24 1.05 1.05 95 1013.5
20260506182508 64 349 0.0 2.0 0.27 1.04 1.04 95 1013.9
20260506182011 63 287 0.0 3.0 0.40 1.04 1.04 95 1014.0
20260506181514 63 345 0.0 3.0 0.40 1.04 1.04 95 1014.0
20260506181005 63 26 1.0 6.0 0.38 1.02 1.02 94 1014.3
20260506180027 63 307 1.0 4.0 0.27 0.91 0.91 94 1015.0
20260506175504 64 352 0.0 2.0 0.26 0.88 0.88 94 1014.3
20260506175008 64 302 0.0 1.0 0.24 0.86 0.86 94 1014.2
20260506174525 64 302 0.0 2.0 0.23 0.85 0.85 93 1014.0
20260506174009 64 259 0.0 2.0 0.22 0.84 0.84 93 1014.0
20260506173505 64 28 0.0 5.0 0.20 0.82 0.82 92 1014.2
20260506173024 65 333 1.0 5.0 0.18 0.80 0.80 91 1014.8
20260506172508 66 276 0.0 12.0 0.16 0.78 0.78 90 1014.5
20260506172003 67 283 1.0 12.0 0.03 0.65 0.65 90 1014.7
20260506171526 68 313 0.0 1.0 0.02 0.64 0.64 93 1014.7
20260506171008 69 291 0.0 3.0 0.02 0.64 0.64 92 1014.1
20260506170515 69 118 0.0 3.0 0.02 0.64 0.64 92 1013.8
20260506165512 69 129 0.0 3.0 0.00 0.62 0.62 91 1013.8
20260506165011 69 148 0.0 3.0 0.00 0.62 0.62 90 1013.8
20260506164514 70 120 0.0 4.0 0.00 0.62 0.62 90 1013.9